Flag for U.S.A. Weather past 2 weeks in Cedar Rapids, Iowa, U.S.A.

Now
51 °F

Fog.


Feels Like: 51 °F
Forecast: 46 / 70 °F
Wind: No wind

Location: Cedar Rapids Municipal Airport

Current Time: Sep 18, 2014 at 1:12:31 AM

Latest Report: Sep 18, 2014 at 12:52 AM


Visibility: 5 mi

Pressure: 30.02 "Hg

Humidity: 100%

Dew point: 51 °F

Location of Cedar RapidsLocation

Historic Weather in Cedar Rapids — Graph

°F

Cedar Rapids temperature yesterday

Maximum temperature yesterday: 70 °F (at 3:52 PM)
Minimum temperature yesterday: 44 °F (at 6:52 AM)
Average temperature yesterday: 57 °F

Past Weeks' High & Low Weather Summary

 TemperatureHumidityPressure
High89 °F (Sep 4, 3:52 PM)100% (Sep 2, 11:52 PM)30.41 "Hg (Sep 2, 11:52 PM)
Low35 °F (Sep 13, 4:52 AM)44% (Sep 13, 1:52 PM)29.48 "Hg (Sep 10, 3:52 AM)
Average60 °F83%30.07 "Hg
* Reported Sep 2 11:52 PM — Sep 17 11:52 PM, Cedar Rapids, Weather by CustomWeather, © 2014

Note: Actual official high and low records may vary slightly from our data, if they occured in-between our weather recording intervals... More about our weather records

Advertising

Cedar Rapids weather history for previous 24 hours

 ConditionsComfort  
Time TempWeatherWind HumidityBarometerVisibility
11:52 PM
Sep 17
52 °FClear.No wind97%30.02 "Hg8 mi
10:52 PM54 °FClear.3 mph97%30.02 "Hg9 mi
9:52 PM55 °FClear.No wind93%30.01 "Hg10 mi
8:52 PM58 °FClear.No wind87%29.99 "Hg10 mi
7:52 PM59 °FSunny.6 mph84%29.97 "Hg10 mi
6:52 PM65 °FSunny.3 mph73%29.95 "Hg10 mi
5:52 PM68 °FScattered clouds.3 mph63%29.94 "Hg10 mi
4:52 PM69 °FSunny.5 mph61%29.94 "Hg10 mi
3:52 PM70 °FPassing clouds.6 mph61%29.95 "Hg10 mi
2:52 PM69 °FScattered clouds.No wind63%29.96 "Hg10 mi
1:52 PM69 °FMostly cloudy.9 mph66%29.97 "Hg10 mi
12:52 PM67 °FScattered clouds.9 mph71%29.99 "Hg10 mi
11:52 AM65 °FSunny.8 mph70%29.99 "Hg10 mi
10:52 AM61 °FSunny.6 mph81%30.01 "Hg10 mi
9:52 AM55 °FOvercast.3 mph93%30.01 "Hg10 mi
8:52 AM51 °FOvercast.5 mph96%30.00 "Hg10 mi
7:52 AM49 °FOvercast.5 mph93%30.00 "Hg9 mi
6:52 AM44 °FClear.5 mph100%30.01 "Hg10 mi
5:52 AM47 °FClear.No wind97%30.01 "Hg10 mi
4:52 AM49 °FOvercast.3 mph97%30.01 "Hg10 mi
3:52 AM46 °FPassing clouds.3 mph100%30.02 "Hg10 mi
2:52 AM46 °FPassing clouds.3 mph96%30.03 "Hg10 mi
1:52 AM47 °FPassing clouds.3 mph97%30.04 "Hg10 mi
Weather by CustomWeather, © 2014

See weather overviewHow to use our weather pages